Regional Weather Roundup
Issued by NWS

Home | Current Version | Previous Version | Text Only | Print | Product List | Glossary Off
Versions: 1 2 3 4 5 6 7 8 9 10 11 12 13 14 15 16 17 18 19 20 21 22 23 24 25 26 27 28 29 30 31 32 33 34 35 36 37 38 39 40 41 42 43 44 45 46 47 48 49 50

000
ASUS43 KMKX 010000
RWRWI

WISCONSIN REGIONAL WEATHER ROUNDUP
NATIONAL WEATHER SERVICE MILWAUKEE/SULLIVAN WI
700 PM CDT SUN AUG 31 2014

NOTE: "FAIR" INDICATES FEW OR NO CLOUDS BELOW 12,000 FEET WITH NO
SIGNIFICANT WEATHER AND/OR OBSTRUCTIONS TO VISIBILITY.

WIZ001-002-006>008-014>016-023>028-010100-
NORTHWEST WISCONSIN

CITY           SKY/WX    TMP DP  RH WIND       PRES   REMARKS
SUPERIOR ARPT  HVY RAIN  62  61  96 NE10      29.65F
ASHLAND        PTCLDY    76  67  73 S9G18     29.66F
6HR MIN TEMP:  66; 6HR MAX TEMP:  79;

HAYWARD        MOCLDY    76  69  79 S13       29.67F
6HR MIN TEMP:  69; 6HR MAX TEMP:  78;

SIREN          MOCLDY    79  70  73 S6        29.65F HX  81
RICE LAKE      CLOUDY    78  69  74 SE13G18   29.69F
6HR MIN TEMP:  74; 6HR MAX TEMP:  80; 6HR PCP:  0.01;

LADYSMITH      PTCLDY    77  69  76 SE10      29.75F
EAU CLAIRE     MOCLDY    80  70  71 S14       29.69F HX  83
6HR MIN TEMP:  77; 6HR MAX TEMP:  84;

MENOMONIE      CLOUDY    80  69  68 SE9       29.69F HX  83
NEW RICHMOND   CLOUDY    79  69  72 S10       29.66F HX  82
OSCEOLA        CLOUDY    80  73  79 S7        29.67F HX  84
$$

WIZ003>005-009-010-017-018-010100-
NORTH CENTRAL WISCONSIN

CITY           SKY/WX    TMP DP  RH WIND       PRES   REMARKS
WOODRUFF       CLEAR     74  66  74 S12G17    29.79F
RHINELANDER    PTCLDY    71  65  81 SE9       29.82F
6HR MIN TEMP:  65; 6HR MAX TEMP:  75;

EAGLE RIVER    PTCLDY    72  63  73 S10G16    29.81F
LAND O LAKES   CLEAR     71  63  74 S9        29.81F
PHILLIPS       MOCLDY    73  67  79 S9        29.77F
TOMAHAWK       PTCLDY    73  64  73 SE3       29.80F
MEDFORD        PTCLDY    74  67  80 SE9       29.79F
MERRILL        PTCLDY    75  66  74 SE8       29.80F
$$

WIZ029-030-035-036-043>047-010100-
CENTRAL WISCONSIN

CITY           SKY/WX    TMP DP  RH WIND       PRES   REMARKS
WAUSAU         PTCLDY    75  66  73 SE12      29.79F
6HR MIN TEMP:  72; 6HR MAX TEMP:  79;

MOSINEE        NOT AVBL
MARSHFIELD     PTCLDY    76  67  73 S8        29.79F
6HR MIN TEMP:  75; 6HR MAX TEMP:  81;

STEVENS POINT  PTCLDY    76  66  71 SE7       29.82F
WAUPACA        CLEAR     79  68  69 SE7       29.82F HX  81
WAUTOMA        NOT AVBL
WISC RAPIDS    PTCLDY    77  67  71 SE6       29.80F
6HR MIN TEMP:  75; 6HR MAX TEMP:  83;

CAMP DOUGLAS   NOT AVBL
$$

WIZ011>013-019>022-031-037>040-048>050-010100-
NORTHEAST WISCONSIN

CITY           SKY/WX    TMP DP  RH WIND       PRES   REMARKS
ANTIGO         MOCLDY    70  66  86 SE13      29.84F
STURGEON BAY   CLOUDY    64  61  88 SE10      29.88F
6HR MIN TEMP:  64; 6HR MAX TEMP:  68;

GREEN BAY      CLOUDY    68  66  93 SE10      29.86F
6HR MIN TEMP:  68; 6HR MAX TEMP:  76;

MANITOWOC      NOT AVBL
APPLETON       MOCLDY    72  66  83 SE13      29.86S
CLINTONVILLE   PTCLDY    73  64  73 SE5       29.83F
OSHKOSH        PTCLDY    77  70  79 SE9       29.84F
6HR MIN TEMP:  75; 6HR MAX TEMP:  81;

$$

WIZ032>034-041-042-053>061-010100-
SOUTHWEST WISCONSIN

CITY           SKY/WX    TMP DP  RH WIND       PRES   REMARKS
LA CROSSE      MOCLDY    83  69  62 S12G21    29.74F HX  86
6HR MIN TEMP:  82; 6HR MAX TEMP:  87; 6HR PCP: TRACE;

SPARTA         PTCLDY    80  65  61 S8        29.78S HX  82
VIROQUA        FAIR      78  67  66 S10       29.81F HX  80
BOSCOBEL       MOCLDY    83  66  56 VRB5      29.79F HX  85
6HR MIN TEMP:  83; 6HR MAX TEMP:  88;

PRAIRIE DU CHI MOCLDY    82  66  57 SE9       29.77F HX  85
PLATTEVILLE    FAIR      81  67  63 S3        29.84F HX  83
$$

WIZ056-057-062-063-064-067-068-010100-
SOUTH CENTRAL WISCONSIN

CITY           SKY/WX    TMP DP  RH WIND       PRES   REMARKS
BARABOO/DELLS  CLEAR     79  65  61 S10       29.81F HX  81
LONE ROCK      NOT AVBL
WATERTOWN      CLEAR     79  66  63 SE7       29.85F HX  81
MADISON        PTCLDY    81  65  58 S12       29.84F HX  83
6HR MIN TEMP:  81; 6HR MAX TEMP:  85;

MIDDLETON      FAIR      82  64  55 S10       29.84F HX  83
MONROE         CLEAR     79  68  69 S12       29.85F HX  81
JANESVILLE     PTCLDY    82  64  54 S12       29.86F HX  84
$$

WIZ051-052-058>065-066-070>072-010100-
SOUTHEAST WISCONSIN

CITY           SKY/WX    TMP DP  RH WIND       PRES   REMARKS
MILWAUKEE      PTCLDY    76  68  76 SE9       29.88F
6HR MIN TEMP:  71; 6HR MAX TEMP:  78;

WAUKESHA       CLEAR     77  63  61 S9        29.89F
MILWAUKEE/TIMM CLEAR     77  66  69 SE5       29.88F
RACINE         CLEAR     76  68  76 S5        29.90S
6HR MIN TEMP:  74; 6HR MAX TEMP:  80;

BURLINGTON     CLEAR     77  66  69 S5        29.88F
KENOSHA        CLEAR     79  68  69 SE7       29.89S HX  81
6HR MIN TEMP:  79; 6HR MAX TEMP:  84;

FOND DU LAC    CLEAR     74  68  81 SE12      29.85F
6HR MIN TEMP:  74; 6HR MAX TEMP:  81;

SHEBOYGAN      CLOUDY    67  65  93 SE5       29.89F FOG
6HR MIN TEMP:  67; 6HR MAX TEMP:  76;

WEST BEND      CLEAR     72  64  78 SE6       29.88F
JUNEAU         PTCLDY    78  66  66 S10       29.87S HX  80
$$

LSZ147-162-010100-
LAKE SUPERIOR

STATION/POSITION TIME  TEMP    WIND        PRES    WAVE
                       AIR SEA DIR/SP/G            HT/PER
                 (UTC) (F)     (DEG/KT/KT) (MB)    (FT/S)
W MID LAKE BUOY  2250   63 58  100/ 10/ 10 1006.2F   2/ 4
DEVILS ISLAND    2300   63      70/  6/  8 1005.2F
PORT WING        2300   67      40/ 10/ 19 1004.4S
SAXON HARBOR     2300   79     180/  3/  9 1005.1F
$$

LMZ867-665-643>646-010100-
LAKE MICHIGAN

STATION/POSITION TIME  TEMP    WIND        PRES    WAVE
                       AIR SEA DIR/SP/G            HT/PER
                 (UTC) (F)     (DEG/KT/KT) (MB)    (FT/S)
N MID LAKE BUOY  2250   64 66  150/  6/  8 1012.6F   1
NORTHPORT PIER   2300   65     140/ 11/ 13 1012.2F
KEWAUNEE LAKESHO 2300   63     150/  6/  8 1011.7F
SHEBOYGAN LAKESH 2300   64 54  150/ 10/ 10 1012.6F
ATWATER BUOY     2300   70     110/  4/  6 1013.3F
MILWAUKEE LAKESH 2300   70     120/  3/  5   N/A
S MID LAKE BUOY  2250   72 72  140/  6/  8 1012.5F   1
KENOSHA   LAKESH 2300   73     170/  7/  9 1011.9S
$$

TC  - TEMPERATURE IN CELSIUS
VSB - VISIBILITY IN STATUTE MILES
WCI - WIND CHILL INDEX
HX  - HEAT INDEX



USA.gov is the U.S. government's official web portal to all federal, state and local government web resources and services.